ARIANE 5 R/B

基本信息
目录编号:
43568
目录名称:
ARIANE 5 R/B
国际标识:
2018-060E
轨道中心:
EARTH
物体状态:
在轨
发射日期:
2018-07-25 UTC
国别:
法国 (FR)
轨道信息
数据来源: 国际轨道数据
星历时间: 2026-07-14T05:03:22+0800
半长轴: 29285.825km
偏心率: 0.0004394
轨道倾角: 56.980°
近地点辐角: 262.625°
升交点赤经: 338.102°
平近点角: 97.311°
近地点: 22894.819km
远地点: 22920.557km
周期: 831.277分钟
每日圈数: 1.732274
详细信息
发射场:
FRGUI
轨道高度:
MEO
数据来源:
AOE Integration Group
参考系:
TEME
时间系统:
UTC
历元类型:
SGP4
2D轨道图
3D轨道图
轨道高度分析图
轨道倾角分析图
轨道综合分析图
查看轨道综合分析图